{"data":{"norad_id":51753,"intl_designator":"2022-016AR","name":"STARLINK-3507","alt_names":[],"object_type":"PAYLOAD","status":"ACTIVE","operator":null,"country":"US","launch_date":"2022-02-21","launch_site_code":"AFETR","launch_vehicle":null,"mission":null,"orbit_class":"UNKNOWN","rcs_meters":null,"size_class":null,"mass_kg":null,"dimensions":null,"purposes":["comms"],"wikipedia_slug":null,"has_3d_model":false,"image_url":null,"decayed_at":null,"tle_current":{"epoch":"2026-05-24T21:09:29.155680Z","epoch_age_seconds":78665,"freshness":"FRESH","line1":"1 51753U 22016AR  26144.88158745  .00002838  00000+0  19622-3 0  9998","line2":"2 51753  53.2142 327.0917 0000918 105.8582 254.2512 15.08857442235203","mean_motion":15.08857442,"eccentricity":9.18e-5,"inclination_deg":53.2142,"raan_deg":327.0917,"arg_perigee_deg":105.8582,"mean_anomaly_deg":254.2512,"bstar":0.00019622,"rev_number":23520,"period_min":95.43645144443,"perigee_km":539.05501973586,"apogee_km":540.32513278706,"semimajor_km":6917.8270762615,"source":"CELESTRAK","updated_at":"2026-05-25T13:38:16.947738Z"}}}